Theta_e
309 308 306 306 306 305 306 306 303 303 303 302 303 303 303 304 303 303 301 303 306 305 308 309 310 310 310 307 307 303 304 304 304 304 305 300 302 298 296 298 296 294 295 295 295
309 308 306 305 305 306 306 307 303 301 302 302 303 303 303 305 302 301 301 303 303 305 308 308 307 307 306 308 306 306 307 306 303 301 302 300 302 298 299 296 296 293 292 293 293
309 308 307 305 304 304 306 303 300 301 302 302 302 302 303 306 304 302 302 303 304 306 307 308 307 307 307 305 303 303 308 304 304 302 300 300 299 298 297 298 295 294 291 291 291
310 309 307 306 304 302 303 302 299 300 302 302 302 302 304 306 304 301 302 304 305 307 308 307 306 306 305 307 303 304 301 302 303 302 301 301 298 298 297 299 295 292 291 291 290
310 309 308 305 303 302 302 301 299 299 301 302 302 303 305 302 301 302 303 304 305 307 306 307 307 305 306 303 302 303 302 300 300 300 298 299 299 299 298 293 291 291 291 289 289
310 309 308 306 303 300 301 300 299 299 300 302 301 302 304 304 301 302 303 304 305 306 305 306 306 303 301 300 302 300 300 301 300 300 300 301 300 299 297 290 290 290 289 288 289
310 309 308 306 304 299 299 300 298 300 301 301 301 303 303 303 301 303 303 304 305 306 304 304 304 303 300 301 299 300 302 301 301 301 301 300 302 299 295 290 291 290 289 288 289
311 309 308 307 304 300 297 298 299 300 302 301 302 303 301 302 301 303 303 303 304 305 304 304 304 299 300 299 299 300 300 303 302 301 300 300 302 299 292 290 291 289 287 288 288
312 310 308 307 305 300 298 298 300 301 301 301 302 301 301 301 301 302 303 303 304 304 303 303 302 299 300 300 300 298 303 301 301 300 300 299 300 297 292 291 291 289 288 288 287
314 311 308 307 305 300 298 299 301 301 301 300 300 299 299 299 301 302 303 303 303 302 302 301 298 299 297 299 303 302 301 300 300 300 299 300 299 297 294 291 292 290 289 287 287
315 312 309 307 305 299 299 302 297 298 301 298 298 300 299 300 302 301 302 302 302 299 301 301 299 300 300 298 300 298 300 301 299 299 300 299 299 298 295 294 293 291 290 288 288
316 313 309 307 304 299 301 296 297 299 299 301 301 301 300 301 299 301 302 301 301 299 299 299 298 298 299 299 299 300 301 301 300 299 299 298 298 297 297 297 296 296 293 291 289
317 314 309 307 304 300 302 301 303 304 303 301 301 301 300 301 299 298 301 300 299 300 298 299 301 299 301 301 300 300 301 300 302 299 298 296 297 297 296 295 296 297 296 294 291
318 314 309 306 302 299 300 300 302 304 300 302 302 302 301 301 302 300 300 300 300 299 296 300 301 301 301 301 300 302 300 299 300 300 301 296 303 297 297 296 295 296 296 295 292
319 313 310 308 299 299 298 300 302 304 300 302 301 300 300 300 300 299 300 300 299 301 299 299 301 301 301 301 300 301 299 298 298 298 300 299 297 298 298 299 298 295 295 295 292
317 314 309 304 297 298 299 303 303 301 299 303 300 301 301 300 300 300 300 298 298 300 299 300 299 300 300 299 299 297 298 297 296 297 295 298 298 300 298 300 301 299 294 294 291
315 313 308 303 299 299 302 301 305 300 300 301 302 301 301 301 300 300 301 300 300 301 301 301 301 300 299 300 299 298 299 295 298 293 301 295 297 299 299 296 298 299 296 292 291
312 309 305 303 298 301 302 302 304 297 298 300 300 300 301 301 301 299 300 300 298 300 299 302 303 300 299 299 300 298 299 301 298 298 300 297 299 301 298 298 295 294 296 291 289
310 305 304 300 299 301 303 303 304 298 300 301 300 299 300 301 302 299 298 299 299 298 306 301 303 298 299 298 299 300 300 296 291 284 295 302 301 299 299 296 296 294 293 291 289
307 304 301 300 300 301 302 307 298 298 301 301 308 301 300 301 302 300 298 298 299 299 300 300 302 298 298 298 297 298 296 299 294 295 296 299 299 302 302 304 299 294 294 291 288
306 306 300 301 301 300 306 304 302 300 301 304 306 302 303 302 303 302 303 301 299 298 299 298 302 299 299 299 299 296 297 296 297 297 298 297 302 298 299 299 302 297 294 291 289
305 304 301 300 301 300 306 301 300 300 302 304 303 303 304 303 304 302 303 301 298 299 301 299 299 298 298 296 295 296 297 296 300 297 295 296 298 299 298 298 296 297 295 291 288
298 297 301 300 307 303 302 303 300 299 302 303 304 303 301 302 305 302 301 299 298 300 301 299 298 294 298 296 293 296 296 295 289 291 295 296 301 297 295 294 295 295 294 290 288
298 300 296 297 297 304 306 305 305 299 302 303 304 302 301 299 301 303 302 299 298 298 302 301 297 301 307 304 296 296 296 296 294 291 295 296 301 301 299 297 297 294 291 289 287
298 299 298 301 302 302 305 306 306 306 300 302 304 305 304 304 302 303 300 299 299 301 298 300 300 293 293 297 296 298 297 297 298 300 300 302 300 302 304 299 298 296 293 289 287
297 297 296 297 299 301 304 307 308 306 301 303 304 304 304 307 307 309 300 301 302 298 298 296 299 295 297 295 296 296 296 296 297 298 298 299 299 298 297 297 295 296 293 292 289
292 292 297 298 298 302 304 305 307 305 304 301 303 303 305 305 302 301 301 302 302 301 301 300 295 296 296 293 295 300 296 297 295 292 298 300 301 300 300 297 297 297 294 295 292
Wind_Speed
7 6 5 3 2 2 2 4 4 2 1 3 3 4 5 6 2 3 5 5 5 7 5 3 7 6 6 4 5 3 5 2 7 8 5 6 5 2 2 6 2 3 2 4 25
8 7 5 4 3 2 2 3 3 1 1 2 2 4 5 4 6 9 6 7 5 6 3 7 4 5 5 4 4 4 4 8 6 7 6 7 5 9 5 4 1 3 4 17 20
10 8 7 6 4 3 2 2 1 1 2 3 1 4 4 2 2 0 7 6 3 3 4 5 6 4 5 4 5 3 3 4 1 4 7 8 5 3 8 4 7 9 10 12 14
12 9 8 7 5 4 2 1 1 2 4 3 1 2 2 1 3 0 6 4 2 3 3 5 5 5 4 4 3 4 3 2 2 3 6 9 9 6 5 3 4 11 16 10 11
13 11 10 7 5 5 3 1 2 3 3 2 1 2 1 2 1 3 5 3 4 4 5 3 4 5 5 4 2 3 2 4 4 7 7 7 3 4 5 1 7 17 12 9 11
14 13 11 9 6 5 4 2 2 3 2 1 0 0 2 2 1 5 5 3 5 6 5 3 5 5 7 4 4 2 5 3 5 4 3 4 1 2 4 6 8 10 10 10 14
15 13 12 9 7 4 3 2 3 4 3 1 1 1 3 1 1 3 4 5 4 6 5 5 11 6 6 5 4 2 5 4 5 3 2 4 5 8 6 8 10 9 8 8 14
19 14 13 10 7 5 4 3 4 3 2 2 1 1 1 1 1 3 4 8 11 14 18 15 17 10 5 5 5 5 5 2 2 0 0 2 8 3 8 10 10 9 8 9 11
21 16 15 11 8 6 5 5 4 3 2 2 3 2 2 1 2 3 3 4 10 11 12 10 7 5 4 6 4 6 2 3 5 5 3 3 7 3 5 8 10 9 10 10 7
19 19 16 13 8 6 6 7 5 3 3 3 3 3 1 1 1 2 4 5 5 3 4 7 6 4 3 3 5 6 4 4 5 2 3 3 17 4 5 8 12 10 11 8 9
23 21 16 14 9 8 11 7 4 3 1 3 2 2 2 3 3 1 1 2 3 8 4 3 4 7 10 6 3 7 6 5 3 2 5 7 16 11 9 10 13 12 12 12 13
27 22 18 15 11 10 13 4 3 2 1 0 0 2 3 3 4 1 1 2 2 3 4 5 5 4 7 7 6 4 4 4 1 3 4 5 16 13 14 15 20 19 17 16 12
31 25 21 16 13 10 10 6 4 2 2 4 3 3 3 7 3 7 4 3 3 5 3 5 0 6 4 4 6 2 4 3 2 3 2 6 9 6 6 10 10 16 13 16 19
36 30 25 20 8 10 6 14 5 3 4 5 5 3 2 4 2 1 2 3 3 7 7 1 1 4 3 4 3 3 3 5 4 2 3 2 7 5 5 8 10 14 18 16 16
39 37 33 25 9 9 7 17 8 3 2 2 2 1 1 3 5 2 1 3 8 6 5 5 5 2 2 2 5 2 3 5 3 4 2 3 2 7 4 7 11 12 15 15 16
44 40 36 26 10 9 18 17 4 6 8 1 2 3 5 4 2 3 2 6 4 5 5 2 1 2 2 3 2 10 6 7 5 3 3 5 3 4 5 7 4 2 8 13 13
46 44 41 26 8 20 25 5 4 5 2 3 3 4 3 3 2 2 6 5 7 5 5 2 1 0 4 7 6 3 5 3 4 3 6 4 3 10 9 7 6 6 5 9 13
47 46 23 18 28 31 21 5 5 2 4 3 4 5 4 5 1 2 6 6 5 3 4 7 4 8 4 4 7 4 3 5 7 3 4 4 7 7 6 5 7 6 4 7 11
45 23 25 24 33 20 9 6 8 8 7 10 5 5 3 2 4 4 6 5 9 11 8 6 2 1 2 2 3 6 4 3 7 1 3 5 9 10 9 8 8 7 5 8 9
29 12 9 39 35 27 6 12 5 3 7 4 9 5 9 7 7 7 9 6 6 11 1 7 5 3 1 2 3 4 4 3 3 2 4 5 6 9 6 5 3 7 12 9 8
15 5 15 35 33 6 6 9 8 6 5 7 9 5 5 8 7 6 3 3 4 4 3 5 5 1 2 7 8 4 2 2 3 4 5 2 6 8 10 10 6 8 8 8 10
4 4 26 43 6 3 8 10 8 10 4 3 4 3 8 10 9 7 11 5 5 10 8 3 5 4 6 1 0 2 7 8 5 6 3 2 7 2 8 7 7 8 7 6 7
3 3 15 30 7 8 3 2 4 6 9 9 10 5 4 9 3 7 7 0 7 8 10 8 3 3 5 3 1 6 7 5 4 3 6 6 6 1 4 7 8 7 5 6 7
4 4 1 4 1 7 7 6 9 3 1 5 5 5 4 3 1 6 7 3 1 6 2 5 1 7 9 6 6 6 8 16 7 4 5 7 7 12 7 8 7 7 7 6 8
1 3 3 9 14 3 7 9 13 11 5 10 2 16 12 8 3 5 2 3 1 3 4 4 5 3 3 1 4 5 6 17 19 25 10 9 16 21 20 12 11 10 5 6 8
2 2 0 1 7 12 6 14 18 14 9 11 15 19 6 14 18 18 7 2 1 6 3 3 1 1 4 3 4 7 8 12 19 16 15 23 21 17 8 5 6 9 8 10 12
4 3 1 5 8 10 19 16 12 9 9 5 24 6 13 23 5 4 2 8 11 11 5 2 4 2 6 4 5 14 13 15 7 6 12 15 22 10 16 12 16 13 11 14 14
Wind_Direction
233 238 241 254 281 310 349 353 350 18 112 129 107 47 37 25 90 92 54 351 334 356 3 89 82 72 70 70 45 133 74 168 196 151 194 171 131 102 139 117 75 10 109 159 153
225 238 248 253 272 289 324 330 349 57 126 139 82 30 24 41 79 64 16 359 349 9 48 83 62 44 50 44 25 72 117 208 186 175 166 161 147 151 138 126 123 67 77 137 150
224 230 244 256 260 270 307 317 355 146 172 167 138 6 3 52 93 54 357 352 353 30 79 83 89 70 69 54 3 16 165 154 177 173 139 134 117 128 129 223 203 185 175 160 151
226 219 232 249 265 269 260 279 241 175 183 188 218 337 22 72 169 330 350 8 59 108 110 98 51 62 75 88 6 82 33 357 64 118 111 146 127 171 204 198 265 168 159 149 153
221 224 228 235 253 273 275 250 216 201 186 194 306 354 145 62 185 345 355 60 104 124 86 93 73 111 103 97 67 77 115 41 64 91 87 109 130 194 223 1 128 136 149 151 161
219 221 231 242 247 258 279 249 201 180 188 189 325 334 66 182 22 354 23 88 120 133 101 69 148 124 96 64 63 56 76 72 31 80 78 113 154 27 193 137 133 151 167 168 170
217 219 227 239 251 254 244 247 185 161 164 134 2 101 95 197 14 14 48 66 95 133 102 93 122 74 132 93 161 79 70 47 18 8 103 156 252 228 171 160 166 181 173 177 188
214 215 219 236 251 251 208 197 159 163 145 139 30 66 188 163 94 61 98 87 94 109 105 116 102 98 74 128 37 61 50 85 279 119 338 54 264 272 166 159 194 195 191 196 205
211 216 214 223 242 248 191 163 149 144 142 134 116 45 275 182 159 89 104 103 98 90 94 108 72 95 79 97 55 16 199 198 307 191 154 170 273 5 161 183 205 205 205 209 201
218 211 207 217 217 233 170 145 130 131 131 105 61 71 54 231 68 116 119 125 102 93 54 47 55 81 61 108 205 185 202 222 230 207 119 271 262 263 204 208 220 211 216 208 206
219 209 209 202 207 192 157 138 54 348 83 199 156 112 151 133 68 42 57 100 89 59 132 10 98 191 195 179 147 140 155 176 233 190 155 246 269 261 215 218 232 227 220 212 213
217 209 202 194 195 196 176 154 199 144 190 227 154 89 133 163 113 320 126 106 122 146 125 51 220 197 147 148 120 124 131 208 191 148 159 280 271 251 219 222 213 213 217 212 204
213 205 197 187 181 198 199 187 150 141 119 207 195 186 191 161 166 179 147 140 113 123 179 157 210 118 120 146 133 144 156 187 176 146 175 299 277 252 253 237 215 220 219 212 202
209 200 187 167 176 181 222 196 165 132 51 233 205 243 123 142 191 103 130 132 52 173 142 157 44 145 127 179 131 184 157 128 135 123 239 316 282 292 237 261 229 223 217 207 197
210 195 187 173 163 172 177 178 158 79 345 349 128 22 102 172 130 333 6 62 151 142 134 220 157 142 158 227 164 171 126 113 94 89 25 301 308 264 40 289 258 219 222 209 194
208 195 180 176 169 171 153 152 126 53 246 120 103 143 114 7 37 123 87 50 136 97 42 94 239 76 101 40 43 149 78 56 55 54 359 245 199 262 182 214 273 213 207 196 185
197 191 181 171 169 151 147 103 67 169 322 228 174 159 110 137 89 132 158 168 157 124 188 63 178 318 134 82 359 61 87 353 357 10 224 321 244 260 265 226 230 240 191 189 184
188 173 165 156 150 158 133 58 201 224 196 161 111 102 187 158 153 151 135 193 235 96 126 155 278 173 174 160 178 197 173 163 200 191 257 23 243 251 228 243 232 251 233 175 178
165 149 150 148 153 160 123 186 214 189 165 143 83 101 223 227 150 148 209 212 204 185 180 150 200 65 68 115 113 185 203 152 101 24 63 232 287 285 266 246 226 212 187 194 185
149 127 138 155 153 131 140 207 218 199 132 141 173 148 180 185 159 193 175 206 209 189 189 199 90 347 7 136 73 166 158 94 353 171 250 278 281 243 302 270 178 212 221 201 181
138 110 147 152 138 139 189 208 209 207 165 155 192 136 187 170 186 199 211 282 209 158 115 153 116 302 140 214 177 133 221 31 142 166 185 216 253 223 234 228 214 230 225 197 190
141 126 161 146 138 233 207 178 191 182 158 202 117 123 172 166 179 211 202 232 143 145 174 215 107 152 196 218 149 269 191 173 146 230 256 130 268 269 256 271 243 239 217 190 178
89 96 169 172 181 205 207 154 201 151 177 178 191 190 166 171 194 192 193 222 166 167 163 191 224 69 359 360 38 208 208 170 123 98 199 155 256 254 275 278 258 252 238 191 169
118 121 2 227 138 216 181 191 208 232 217 130 153 121 132 106 294 194 214 208 227 195 122 92 138 174 201 185 130 193 201 197 155 133 203 223 275 282 269 255 255 244 232 198 183
26 163 161 197 223 144 185 174 200 206 197 181 259 215 186 191 136 211 160 133 74 323 78 146 220 168 264 180 179 202 189 192 204 220 203 219 229 250 253 235 244 231 197 182 189
138 123 142 341 178 190 189 213 210 192 164 207 232 220 227 218 213 220 118 92 230 23 62 359 245 60 297 334 239 258 211 182 217 239 259 269 266 245 270 236 252 230 195 210 205
105 95 244 183 184 187 215 220 211 161 228 213 217 138 201 225 114 65 133 155 161 153 155 178 143 78 266 341 319 271 191 191 189 190 210 236 242 266 261 234 239 246 200 220 218